This is the latest recevied weather packets stored in our database for station/object K3HW. If no packets are shown the sender has not sent any weather packets the latest 10 day(s).
| Time | Temp. | Humidity | Pressure | Rain* | Wind** | Luminosity | Snow |
|---|---|---|---|---|---|---|---|
| 1777471904 | 14.44° C | 58% | 1018.2 hPa | 0 mm | - | 127 W/m² | - |
| 1777471602 | 14.44° C | 59% | 1018 hPa | 0 mm | - | 126 W/m² | - |
| 1777471298 | 13.89° C | 60% | 1018.3 hPa | 0 mm | - | 134 W/m² | - |
| 1777470995 | 13.89° C | 61% | 1018.5 hPa | 0 mm | - | 116 W/m² | - |
| 1777470692 | 13.89° C | 62% | 1018.3 hPa | 0 mm | - | 105 W/m² | - |
| 1777470387 | 13.33° C | 61% | 1018.6 hPa | 0 mm | - | 92 W/m² | - |
| 1777470085 | 13.33° C | 62% | 1018.6 hPa | 0 mm | - | 72 W/m² | - |
| 1777469781 | 13.33° C | 62% | 1018.5 hPa | 0 mm | - | 66 W/m² | - |
| 1777469477 | 13.33° C | 61% | 1018.7 hPa | 0 mm | - | 68 W/m² | - |
| 1777469177 | 13.33° C | 62% | 1018.7 hPa | 0 mm | - | 71 W/m² | - |
| 1777468877 | 13.33° C | 62% | 1018.6 hPa | 0 mm | - | 75 W/m² | - |
| 1777468574 | 12.78° C | 63% | 1018.6 hPa | 0 mm | - | 79 W/m² | - |
| 1777468271 | 12.78° C | 62% | 1018.7 hPa | 0 mm | - | 55 W/m² | - |
| 1777467967 | 12.78° C | 63% | 1018.6 hPa | 0 mm | - | 47 W/m² | - |
| 1777467663 | 12.78° C | 63% | 1018.6 hPa | 0 mm | - | 49 W/m² | - |
| 1777467358 | 12.78° C | 64% | 1018.7 hPa | 0 mm | - | 49 W/m² | - |
| 1777467054 | 12.78° C | 63% | 1018.8 hPa | 0 mm | - | 50 W/m² | - |
| 1777466752 | 12.78° C | 64% | 1018.8 hPa | 0 mm | - | 52 W/m² | - |
| 1777466449 | 12.22° C | 64% | 1018.8 hPa | 0 mm | - | 57 W/m² | - |
| 1777466145 | 12.22° C | 65% | 1018.8 hPa | 0 mm | - | 52 W/m² | - |
| 1777465842 | 12.22° C | 65% | 1018.8 hPa | 0 mm | - | 39 W/m² | - |
| 1777465538 | 12.22° C | 65% | 1019.1 hPa | 0 mm | - | 29 W/m² | - |
| 1777465232 | 12.22° C | 65% | 1019 hPa | 0 mm | - | 25 W/m² | - |
| 1777464927 | 12.22° C | 65% | 1019.1 hPa | 0 mm | - | 28 W/m² | - |
| 1777464622 | 12.22° C | 66% | 1018.9 hPa | 0 mm | - | 30 W/m² | - |
* Rain latest hour (hover to see other rain measurements)
** Current wind speed in m/s (hover to see current wind gust speed)